Starlink 6189

operational
NORAD ID: 56377 Int'l Des: 2023-061 Owner: SPXS Country: US Constellation: starlink
LEOCIRCULAR

Starlink 6189について

説明を読み込み中...

リアルタイム位置

3D地球を読み込み中...

次回通過

高度履歴

Altitude vs Time

uPlot chart will show altitude changes over time

軌道要素

1 56377U 23061D 25354.11645255 .00000278 00000-0 35649-4 0 9996
2 56377 43.0043 269.9460 0001107 272.1665 87.9050 15.02532302144784
Epoch: Dec 20, 2025 • Age: 24 hours

現在のステータス

高度 563.0 km
速度 7.59 km/s
衛星直下点 43.14°N, 144.38°W
打ち上げ日 May 4, 2023
運用期間 2.6 years
タイプ internet

技術仕様

分類 Payload
質量 305.00 kg
乾燥質量 290.00 kg
総質量 305.00 kg
長さ 0.20 m
直径 2.80 m
スパン 9.00 m
形状 Box + pan
製造者 SPXS
バスタイプ Starlink
フェーズステータス In Orbit
所有者/国 SPXS/US

大規模コンステレーション

Loading constellations...